Regional Weather Roundup
Issued by NWS

Home | Current Version | Previous Version | Graphics & Text | Print | Product List | Glossary On
Versions: 1 2 3 4 5 6 7 8 9 10 11 12 13 14 15 16 17 18 19 20 21 22 23 24 25 26 27 28 29 30 31 32 33 34 35 36 37 38 39 40 41 42 43 44 45 46 47 48 49 50
000
ASUS43 KFSD 261902
RWRSD

WEATHER ROUNDUP FOR SOUTH DAKOTA
NATIONAL WEATHER SERVICE SIOUX FALLS SD
200 PM CDT TUE JUL 26 2016

NOTE: "FAIR" INDICATES FEW OR NO CLOUDS BELOW 12,000 FEET WITH NO
SIGNIFICANT WEATHER AND/OR OBSTRUCTIONS TO VISIBILITY.


SDZ001>005-009-010-012>017-262000-
NORTHWEST AND NORTH CENTRAL SOUTH DAKOTA

CITY           SKY/WX    TMP DP  RH WIND       PRES   REMARKS
BUFFALO          N/A     78  59  51 N7        30.00S
FAITH            N/A     86  52  30 E14       29.97S
MOBRIDGE       CLOUDY    80  66  62 E17G23    29.89F
$$

SDZ012>016-024>037-041>051-057-063-072>074-262000-
SOUTHWEST AND SOUTH CENTRAL SOUTH DAKOTA

CITY           SKY/WX    TMP DP  RH WIND       PRES   REMARKS
RAPID CTY ARPT SUNNY     84  56  38 SE9       30.05S
PIERRE         PTSUNNY   89  62  40 NE12      29.94F
CUSTER         SUNNY     80  50  34 VRB6      30.19R
PHILIP         PTSUNNY   90  58  33 NE16      29.97R
PINE RIDGE     SUNNY     88  63  43 SE14G21   30.01F
WINNER         FAIR      91  62  37 S6        29.98F
$$

SDZ004>011-016>023-039-040-262000-
NORTHEAST SOUTH DAKOTA

CITY           SKY/WX    TMP DP  RH WIND       PRES   REMARKS
ABERDEEN       CLOUDY    70  62  76 SE16      29.97F
WATERTOWN      CLOUDY    81  69  67 W12G17    30.04R
BROOKINGS      SUNNY     85  66  53 S12       30.02F
SISSETON         N/A     79  60  52 VRB3      29.93S
$$

SDZ017-020-022-023-036>040-048>070-262000-
SOUTHEAST SOUTH DAKOTA

CITY           SKY/WX    TMP DP  RH WIND       PRES   REMARKS
SIOUX FALLS    MOSUNNY   85  61  44 SW15G21   30.02F
HURON          PTSUNNY   85  64  49 S12       29.95F THUNDER
CHAMBERLAIN    CLOUDY    75  72  90 NE3       29.96F
MITCHELL       SUNNY     89  61  38 S14G22    29.98F
YANKTON        SUNNY     88  63  42 S13       30.00F
$$

ABBREVIATIONS USED IN REMARKS
   TC - TEMPERATURE IN CELSIUS
  WCI - WIND CHILL INDEX
   HX - HEAT INDEX
  VSB - VISIBILITY





USA.gov is the U.S. government's official web portal to all federal, state and local government web resources and services.